Time,TemperatureF,DewpointF,PressureIn,WindDirection,WindDirectionDegrees,WindSpeedMPH,WindSpeedGustMPH,Humidity,HourlyPrecipIn,Conditions,Clouds,dailyrainin,SoftwareType,DateUTC
2013-03-13 07:38:00,33.4,31.0,29.85,WNW,300,0.0,0.0,92,0.00,,,0.00,weatherlink.com 1.10,2013-03-13 11:38:00,
2013-03-13 07:50:00,33.3,31.2,29.86,WNW,300,0.0,0.0,92,0.00,,,0.00,Wunderground v.1.15,2013-03-13 11:50:00,
2013-03-13 08:00:00,33.5,31.7,29.86,WNW,300,0.0,0.0,93,0.00,,,0.00,Wunderground v.1.15,2013-03-13 12:00:00,
2013-03-13 08:08:00,33.8,32.0,29.86,WNW,300,0.0,1.0,93,0.00,,,0.00,weatherlink.com 1.10,2013-03-13 12:08:00,
2013-03-13 08:20:00,34.4,32.3,29.86,WNW,302,0.0,0.0,92,0.00,,,0.00,Wunderground v.1.15,2013-03-13 12:20:00,
2013-03-13 08:30:00,35.2,32.8,29.86,West,266,0.0,0.0,91,0.00,,,0.00,Wunderground v.1.15,2013-03-13 12:30:00,
2013-03-13 08:38:00,36.0,33.0,29.86,West,263,1.0,5.0,88,0.00,,,0.00,weatherlink.com 1.10,2013-03-13 12:38:00,
2013-03-13 08:50:00,37.2,33.1,29.86,WNW,292,1.0,1.0,85,0.00,,,0.00,Wunderground v.1.15,2013-03-13 12:50:00,
2013-03-13 09:00:00,37.9,33.2,29.86,SW,229,1.0,3.0,83,0.00,,,0.00,Wunderground v.1.15,2013-03-13 13:00:00,
2013-03-13 09:08:00,38.4,33.0,29.86,West,263,0.0,7.0,82,0.00,,,0.00,weatherlink.com 1.10,2013-03-13 13:08:00,
2013-03-13 09:20:00,39.1,33.8,29.86,WSW,254,1.0,3.0,81,0.00,,,0.00,Wunderground v.1.15,2013-03-13 13:20:00,
2013-03-13 09:30:00,39.6,33.0,29.86,WNW,289,1.0,1.0,77,0.00,,,0.00,Wunderground v.1.15,2013-03-13 13:30:00,
2013-03-13 09:38:00,39.7,33.0,29.86,NW,306,0.0,6.0,78,0.00,,,0.00,weatherlink.com 1.10,2013-03-13 13:38:00,
2013-03-13 09:50:00,40.3,33.3,29.85,NNW,331,1.0,2.0,76,0.00,,,0.00,Wunderground v.1.15,2013-03-13 13:50:00,
2013-03-13 10:00:00,41.2,32.9,29.85,WSW,251,3.0,3.0,72,0.00,,,0.00,Wunderground v.1.15,2013-03-13 14:00:00,
2013-03-13 10:10:00,41.6,33.0,29.85,NNW,338,3.0,9.0,72,0.00,,,0.00,weatherlink.com 1.10,2013-03-13 14:10:00,
2013-03-13 10:20:00,41.8,32.4,29.85,North,355,2.0,3.0,69,0.00,,,0.00,Wunderground v.1.15,2013-03-13 14:20:00,
2013-03-13 10:30:00,42.4,32.9,29.84,West,275,2.0,7.0,69,0.00,,,0.00,Wunderground v.1.15,2013-03-13 14:30:00,
2013-03-13 10:39:00,42.5,33.0,29.84,WNW,289,6.0,10.0,69,0.00,,,0.00,weatherlink.com 1.10,2013-03-13 14:39:00,
2013-03-13 10:50:00,42.4,30.7,29.85,WSW,245,2.0,5.0,63,0.00,,,0.00,Wunderground v.1.15,2013-03-13 14:50:00,
2013-03-13 11:00:00,42.4,31.8,29.84,NW,320,1.0,1.0,66,0.00,,,0.00,Wunderground v.1.15,2013-03-13 15:00:00,
2013-03-13 11:09:00,42.5,31.0,29.84,West,261,3.0,7.0,65,0.00,,,0.00,weatherlink.com 1.10,2013-03-13 15:09:00,
2013-03-13 11:20:00,42.9,31.6,29.84,NNW,335,2.0,3.0,64,0.00,,,0.00,Wunderground v.1.15,2013-03-13 15:20:00,
2013-03-13 11:25:00,43.1,31.0,29.83,NNW,332,0.0,8.0,62,0.00,,,0.00,weatherlink.com 1.10,2013-03-13 15:25:00,
2013-03-13 11:40:00,43.5,30.5,29.83,North,350,3.0,3.0,60,0.00,,,0.00,Wunderground v.1.15,2013-03-13 15:40:00,
2013-03-13 11:50:00,43.6,31.4,29.83,NNW,341,1.0,1.0,62,0.00,,,0.00,Wunderground v.1.15,2013-03-13 15:50:00,
2013-03-13 11:55:00,44.0,31.0,29.84,WNW,302,0.0,10.0,60,0.00,,,0.00,weatherlink.com 1.10,2013-03-13 15:55:00,
2013-03-13 12:00:00,44.3,31.3,29.84,NW,322,2.0,2.0,60,0.00,,,0.00,Wunderground v.1.15,2013-03-13 16:00:00,
2013-03-13 12:09:00,44.3,31.0,29.84,NW,326,3.0,7.0,60,0.00,,,0.00,weatherlink.com 1.10,2013-03-13 16:09:00,
2013-03-13 12:20:00,44.3,30.4,29.83,WSW,246,3.0,4.0,58,0.00,,,0.00,Wunderground v.1.15,2013-03-13 16:20:00,
2013-03-13 12:25:00,45.0,31.0,29.83,WNW,292,4.0,9.0,59,0.00,,,0.00,weatherlink.com 1.10,2013-03-13 16:25:00,
2013-03-13 12:40:00,46.0,31.6,29.82,NW,326,3.0,3.0,57,0.00,,,0.00,Wunderground v.1.15,2013-03-13 16:40:00,
2013-03-13 12:50:00,45.5,30.3,29.82,NNW,346,4.0,4.0,55,0.00,,,0.00,Wunderground v.1.15,2013-03-13 16:50:00,
2013-03-13 13:00:00,44.7,30.4,29.82,NNW,347,3.0,3.0,57,0.00,,,0.00,Wunderground v.1.15,2013-03-13 17:00:00,
2013-03-13 13:10:00,45.3,30.5,29.81,North,11,2.0,3.0,56,0.00,,,0.00,Wunderground v.1.15,2013-03-13 17:10:00,
2013-03-13 13:20:00,45.9,30.2,29.81,NNW,338,3.0,3.0,54,0.00,,,0.00,Wunderground v.1.15,2013-03-13 17:20:00,
2013-03-13 13:25:00,45.2,30.0,29.81,NNW,341,4.0,10.0,55,0.00,,,0.00,weatherlink.com 1.10,2013-03-13 17:25:00,
2013-03-13 13:40:00,45.4,30.2,29.80,WNW,294,1.0,1.0,55,0.00,,,0.00,Wunderground v.1.15,2013-03-13 17:40:00,
2013-03-13 13:50:00,45.7,28.6,29.80,West,281,2.0,2.0,51,0.00,,,0.00,Wunderground v.1.15,2013-03-13 17:50:00,
2013-03-13 13:55:00,45.7,29.0,29.79,WNW,292,0.0,8.0,52,0.00,,,0.00,weatherlink.com 1.10,2013-03-13 17:55:00,
2013-03-13 14:00:00,45.8,28.7,29.79,NNW,327,1.0,1.0,51,0.00,,,0.00,Wunderground v.1.15,2013-03-13 18:00:00,
2013-03-13 14:10:00,45.9,28.3,29.79,WNW,298,1.0,1.0,50,0.00,,,0.00,Wunderground v.1.15,2013-03-13 18:10:00,
2013-03-13 14:20:00,45.8,27.2,29.78,WNW,301,3.0,3.0,48,0.00,,,0.00,Wunderground v.1.15,2013-03-13 18:20:00,
2013-03-13 14:25:00,45.7,28.0,29.78,North,5,1.0,7.0,50,0.00,,,0.00,weatherlink.com 1.10,2013-03-13 18:25:00,
2013-03-13 14:40:00,46.1,28.5,29.78,North,350,2.0,5.0,50,0.00,,,0.00,Wunderground v.1.15,2013-03-13 18:40:00,
2013-03-13 14:50:00,46.5,26.8,29.77,NNW,335,4.0,4.0,46,0.00,,,0.00,Wunderground v.1.15,2013-03-13 18:50:00,
2013-03-13 14:57:00,46.9,27.0,29.77,NW,304,1.0,9.0,46,0.00,,,0.00,weatherlink.com 1.10,2013-03-13 18:57:00,
2013-03-13 15:10:00,47.5,26.6,29.77,NW,319,2.0,2.0,44,0.00,,,0.00,Wunderground v.1.15,2013-03-13 19:10:00,
2013-03-13 15:20:00,47.0,26.7,29.77,WSW,258,2.0,2.0,45,0.00,,,0.00,Wunderground v.1.15,2013-03-13 19:20:00,
2013-03-13 15:26:00,46.9,27.0,29.77,WSW,244,7.0,11.0,46,0.00,,,0.00,weatherlink.com 1.10,2013-03-13 19:26:00,
2013-03-13 15:40:00,48.1,27.2,29.76,WSW,246,2.0,3.0,44,0.00,,,0.00,Wunderground v.1.15,2013-03-13 19:40:00,
2013-03-13 15:50:00,47.6,26.2,29.77,NW,305,3.0,3.0,43,0.00,,,0.00,Wunderground v.1.15,2013-03-13 19:50:00,
2013-03-13 15:56:00,47.2,26.0,29.77,NNW,340,0.0,10.0,44,0.00,,,0.00,weatherlink.com 1.10,2013-03-13 19:56:00,
2013-03-13 16:10:00,47.0,25.6,29.76,NW,314,2.0,2.0,43,0.00,,,0.00,Wunderground v.1.15,2013-03-13 20:10:00,
2013-03-13 16:20:00,46.7,25.4,29.76,West,278,2.0,2.0,43,0.00,,,0.00,Wunderground v.1.15,2013-03-13 20:20:00,
2013-03-13 16:30:00,46.5,25.2,29.76,NNW,336,2.0,3.0,43,0.00,,,0.00,Wunderground v.1.15,2013-03-13 20:30:00,
2013-03-13 16:40:00,46.4,25.6,29.76,NNW,330,2.0,2.0,44,0.00,,,0.00,Wunderground v.1.15,2013-03-13 20:40:00,
2013-03-13 16:50:00,46.7,25.4,29.77,NNW,338,1.0,1.0,43,0.00,,,0.00,Wunderground v.1.15,2013-03-13 20:50:00,
2013-03-13 16:57:00,47.0,25.0,29.77,WNW,298,0.0,6.0,42,0.00,,,0.00,weatherlink.com 1.10,2013-03-13 20:57:00,
2013-03-13 17:10:00,47.2,24.1,29.77,WSW,250,3.0,8.0,40,0.00,,,0.00,Wunderground v.1.15,2013-03-13 21:10:00,
2013-03-13 17:20:00,47.7,24.5,29.77,WSW,254,1.0,2.0,40,0.00,,,0.00,Wunderground v.1.15,2013-03-13 21:20:00,
2013-03-13 17:27:00,47.9,24.0,29.77,SW,227,5.0,12.0,40,0.00,,,0.00,weatherlink.com 1.10,2013-03-13 21:27:00,
2013-03-13 17:40:00,48.3,23.8,29.77,NNE,12,3.0,3.0,38,0.00,,,0.00,Wunderground v.1.15,2013-03-13 21:40:00,
2013-03-13 17:50:00,47.4,24.9,29.77,NNW,327,3.0,3.0,41,0.00,,,0.00,Wunderground v.1.15,2013-03-13 21:50:00,
2013-03-13 17:58:00,46.6,25.0,29.78,NNW,340,2.0,13.0,43,0.00,,,0.00,weatherlink.com 1.10,2013-03-13 21:58:00,
2013-03-13 18:10:00,45.5,25.9,29.78,NW,304,3.0,3.0,46,0.00,,,0.00,Wunderground v.1.15,2013-03-13 22:10:00,
2013-03-13 18:20:00,45.2,26.7,29.79,NNW,344,3.0,5.0,48,0.00,,,0.00,Wunderground v.1.15,2013-03-13 22:20:00,
2013-03-13 18:28:00,44.7,27.0,29.80,NW,321,3.0,17.0,51,0.00,,,0.00,weatherlink.com 1.10,2013-03-13 22:28:00,
2013-03-13 18:40:00,43.7,28.6,29.80,NNW,341,3.0,3.0,55,0.00,,,0.00,Wunderground v.1.15,2013-03-13 22:40:00,
2013-03-13 18:50:00,43.1,28.5,29.80,WNW,289,2.0,2.0,56,0.00,,,0.00,Wunderground v.1.15,2013-03-13 22:50:00,
2013-03-13 18:58:00,42.8,29.0,29.81,WNW,285,7.0,9.0,58,0.00,,,0.00,weatherlink.com 1.10,2013-03-13 22:58:00,
2013-03-13 19:10:00,41.8,30.5,29.82,WNW,290,4.0,4.0,64,0.00,,,0.00,Wunderground v.1.15,2013-03-13 23:10:00,
2013-03-13 19:15:00,41.2,31.0,29.82,NNW,333,3.0,6.0,67,0.00,,,0.00,weatherlink.com 1.10,2013-03-13 23:15:00,
2013-03-13 19:28:00,40.0,32.0,29.82,WNW,287,0.0,6.0,72,0.00,,,0.00,weatherlink.com 1.10,2013-03-13 23:28:00,
2013-03-13 19:40:00,39.3,31.7,29.82,WNW,295,1.0,1.0,74,0.00,,,0.00,Wunderground v.1.15,2013-03-13 23:40:00,
2013-03-13 19:50:00,38.9,31.6,29.83,NW,304,1.0,1.0,75,0.00,,,0.00,Wunderground v.1.15,2013-03-13 23:50:00,
2013-03-13 19:58:00,38.6,31.0,29.83,WNW,299,2.0,4.0,75,0.00,,,0.00,weatherlink.com 1.10,2013-03-13 23:58:00,
2013-03-13 20:10:00,38.2,31.6,29.83,NW,307,1.0,1.0,77,0.00,,,0.00,Wunderground v.1.15,2013-03-14 00:10:00,
2013-03-13 20:20:00,38.0,31.4,29.83,WNW,297,1.0,3.0,77,0.00,,,0.00,Wunderground v.1.15,2013-03-14 00:20:00,
2013-03-13 20:28:00,38.1,32.0,29.83,WNW,294,0.0,4.0,78,0.00,,,0.00,weatherlink.com 1.10,2013-03-14 00:28:00,
2013-03-13 20:40:00,38.0,31.7,29.83,WNW,302,1.0,1.0,78,0.00,,,0.00,Wunderground v.1.15,2013-03-14 00:40:00,
2013-03-13 20:50:00,37.9,31.7,29.83,NW,305,1.0,1.0,78,0.00,,,0.00,Wunderground v.1.15,2013-03-14 00:50:00,
2013-03-13 20:58:00,37.7,31.0,29.83,WNW,296,0.0,6.0,77,0.00,,,0.00,weatherlink.com 1.10,2013-03-14 00:58:00,
2013-03-13 21:10:00,37.4,30.8,29.83,NW,311,0.0,1.0,77,0.00,,,0.00,Wunderground v.1.15,2013-03-14 01:10:00,
2013-03-13 21:20:00,37.1,30.9,29.83,NW,311,0.0,0.0,78,0.00,,,0.00,Wunderground v.1.15,2013-03-14 01:20:00,
2013-03-13 21:28:00,36.8,31.0,29.84,NW,311,0.0,2.0,78,0.00,,,0.00,weatherlink.com 1.10,2013-03-14 01:28:00,
2013-03-13 21:40:00,36.4,30.5,29.83,NW,311,0.0,0.0,79,0.00,,,0.00,Wunderground v.1.15,2013-03-14 01:40:00,
2013-03-13 21:50:00,36.1,30.2,29.84,NW,311,0.0,0.0,79,0.00,,,0.00,Wunderground v.1.15,2013-03-14 01:50:00,
2013-03-13 21:58:00,36.0,30.0,29.84,NW,311,0.0,1.0,79,0.00,,,0.00,weatherlink.com 1.10,2013-03-14 01:58:00,
2013-03-13 22:10:00,35.9,30.3,29.84,NW,311,0.0,0.0,80,0.00,,,0.00,Wunderground v.1.15,2013-03-14 02:10:00,
2013-03-13 22:20:00,35.9,29.7,29.85,NW,311,0.0,0.0,78,0.00,,,0.00,Wunderground v.1.15,2013-03-14 02:20:00,
2013-03-13 22:28:00,36.0,29.0,29.85,WNW,303,0.0,3.0,77,0.00,,,0.00,weatherlink.com 1.10,2013-03-14 02:28:00,
2013-03-13 22:40:00,36.2,29.4,29.85,WNW,296,0.0,0.0,76,0.00,,,0.00,Wunderground v.1.15,2013-03-14 02:40:00,
2013-03-13 22:50:00,36.3,29.5,29.85,WNW,292,0.0,2.0,76,0.00,,,0.00,Wunderground v.1.15,2013-03-14 02:50:00,
2013-03-13 22:58:00,36.5,30.0,29.85,WNW,288,1.0,6.0,76,0.00,,,0.00,weatherlink.com 1.10,2013-03-14 02:58:00,
2013-03-13 23:10:00,36.7,28.9,29.85,NW,309,2.0,2.0,73,0.00,,,0.00,Wunderground v.1.15,2013-03-14 03:10:00,
2013-03-13 23:20:00,36.9,29.1,29.85,NNW,330,2.0,3.0,73,0.00,,,0.00,Wunderground v.1.15,2013-03-14 03:20:00,
2013-03-13 23:30:00,36.7,28.9,29.85,NNW,331,1.0,3.0,73,0.00,,,0.00,Wunderground v.1.15,2013-03-14 03:30:00,
2013-03-13 23:40:00,36.4,28.2,29.85,WNW,298,2.0,2.0,72,0.00,,,0.00,Wunderground v.1.15,2013-03-14 03:40:00,
2013-03-13 23:50:00,36.2,28.0,29.84,WNW,292,2.0,2.0,72,0.00,,,0.00,Wunderground v.1.15,2013-03-14 03:50:00,
2013-03-13 23:58:00,36.0,27.0,29.84,NW,316,2.0,6.0,71,0.00,,,0.00,weatherlink.com 1.10,2013-03-14 03:58:00,